Hourly Data Report for October 31, 2015

All times are specified in Local Standard Time (LST). Add 1 hour to adjust for Daylight Saving Time where and when it is observed.

BAKER LAKE A
NUNAVUT

64°17'56.000" N
96°04'40.000" W
18.60 m
2300503
71926
YBK

Download Data

Hourly Data (October 2015)
Hourly Data Report for October 31, 2015
Temp Definition
°C
Dew Point Temp Definition
°C
Rel Hum Definition
%
Wind Dir Definition
10's deg

Wind Spd Definition
km/h
Visibility Definition
km
Stn Press Definition
kPa
Hmdx Definition


Wind Chill Definition


Weather Definition


TIME
00:00 Legend Double Dagger -9.4 -10.9 89 9 18 24.1 100.81   -17 LegendNANA
01:00 Legend Double Dagger -10.4 -12.2 87 8 22 24.1 100.80   -19 Snow
02:00 Legend Double Dagger -9.7 -11.3 88 8 22 24.1 100.80   -18 Snow
03:00 Legend Double Dagger -9.6 -11.4 87 9 27 24.1 100.77   -19 Snow
04:00 Legend Double Dagger -8.3 -10.0 88 11 29 24.1 100.80   -17 Snow
05:00 Legend Double Dagger -8.0 -9.7 88 12 32 24.1 100.77   -17 Snow
06:00 Legend Double Dagger -7.8 -9.3 89 11 32 24.1 100.78   -17 Snow
07:00 Legend Double Dagger -7.3 -8.8 89 11 33 24.1 100.77   -16 Snow
08:00 Legend Double Dagger -7.2 -8.7 89 11 30 24.1 100.79   -16 Snow
09:00 Legend Double Dagger -6.6 -8.3 88 12 27 16.1 100.80   -15 Snow
10:00 Legend Double Dagger -6.0 -7.8 87 12 32 24.1 100.77   -15 Snow
11:00 Legend Double Dagger -5.7 -7.7 86 12 29 32.2 100.80   -14 Snow
12:00 Legend Double Dagger -5.3 -7.3 86 12 27 32.2 100.81   -13 Snow
13:00 Legend Double Dagger -4.9 -6.7 87 13 29 16.1 100.81   -13 Snow
14:00 Legend Double Dagger -4.9 -6.7 87 13 30 8.1 100.82   -13 Snow,Blowing Snow
15:00 Legend Double Dagger -5.2 -6.7 89 13 30 8.1 100.82   -13 Snow
16:00 Legend Double Dagger -5.1 -6.6 89 12 31 6.4 100.85   -13 Snow,Blowing Snow
17:00 Legend Double Dagger -5.2 -6.4 91 12 27 4.0 100.85   -13 Snow,Blowing Snow
18:00 Legend Double Dagger -5.4 -6.6 91 12 30 9.7 100.85   -14 Snow,Blowing Snow
19:00 Legend Double Dagger -5.4 -6.6 91 12 30 9.7 100.86   -14 Snow,Blowing Snow
20:00 Legend Double Dagger -5.3 -6.7 90 12 30 16.1 100.86   -13 Snow,Blowing Snow
21:00 Legend Double Dagger -5.2 -6.4 91 12 28 16.1 100.85   -13 Snow,Blowing Snow
22:00 Legend Double Dagger -5.2 -6.4 91 13 33 16.1 100.86   -14 Snow,Blowing Snow
23:00 Legend Double Dagger -5.0 -6.4 90 13 35 16.1 100.90   -14 Snow,Blowing Snow

Notes on Data Quality.

Legend

  • E = Estimated
  • M = Missing
  • NA = Not Available
  • ‡ = Partner data that is not subject to review by the National Climate Archives
Date modified: